Regional Weather Roundup
Issued by NWS

Home | Current Version | Previous Version | Text Only | Print | Product List | Glossary Off
Versions: 1 2 3 4 5 6 7 8 9 10 11 12 13 14 15 16 17 18 19 20 21 22 23 24 25 26 27 28 29 30 31 32 33 34 35 36 37 38 39 40 41 42 43 44 45 46 47 48 49 50

000
ASUS43 KLMK 250010
RWRKY
KENTUCKY REGIONAL WEATHER ROUNDUP
NATIONAL WEATHER SERVICE LOUISVILLE KY
800 PM EDT FRI APR 24 2015

NOTE "FAIR" INDICATES FEW OR NO CLOUDS BELOW 12,000 FEET
WITH NO SIGNIFICANT WEATHER AND/OR OBSTRUCTIONS TO VISIBILITY.

KYZ001>023-026-027-061>063-070>075-250100-
WESTERN AND SOUTH CENTRAL KENTUCKY

CITY           SKY/WX    TMP DP  RH WIND       PRES   REMARKS
PADUCAH        CLOUDY    59  42  53 SE5       29.87F
HENDERSON      CLOUDY    59  34  38 SE6       29.91S
OWENSBORO      CLOUDY    60  37  42 S8        29.93F
HOPKINSVILLE   PTCLDY    60  40  48 SE6       29.90F
BOWLING GREEN  CLOUDY    63  34  33 SW5       29.94F
GLASGOW        CLOUDY    59  45  60 CALM      29.94F
$$

KYZ024-025-028>034-038-045-046-053-250100-
NORTH CENTRAL KENTUCKY

CITY           SKY/WX    TMP DP  RH WIND       PRES   REMARKS
LOUISVILLE/SDF CLOUDY    63  26  24 SE8       29.92F
LOUISVILLE/LOU CLOUDY    62  26  25 SE7       29.93F
FORT KNOX      CLOUDY    60  31  33 SE5       29.91F HAZE
$$

KYZ035>037-039>044-047>052-055>060-089>105-250100-
NORTHEAST KENTUCKY

CITY           SKY/WX    TMP DP  RH WIND       PRES   REMARKS
LEXINGTON      CLOUDY    58  27  30 S3        29.96F
COVINGTON      CLOUDY    56  33  42 S9        29.96F
FRANKFORT      CLOUDY    58  29  33 E5        29.94F
$$

KYZ054-064>069-076>088-106>120-250100-
SOUTHEAST KENTUCKY

CITY           SKY/WX    TMP DP  RH WIND       PRES   REMARKS
JACKSON        CLOUDY    60  16  18 CALM      29.98F
LONDON         CLOUDY    63  16  16 NE3       29.96F
SOMERSET       CLOUDY    59  30  33 N3        29.97S
MIDDLESBORO    CLOUDY    63  29  27 CALM      29.97F
MONTICELLO     CLOUDY    61  39  44 CALM      29.98F
$$




USA.gov is the U.S. government's official web portal to all federal, state and local government web resources and services.